FW0810 Weather Reports


Display with metric or nautical units.
time (UTC)temp
F
wind
direction
speed
MPH
gust
MPH
rain 1hr
in
rain 24hr
in
rain mn
in
humidity
%
barometer
mb
20260906222257 74 274 0.0 1.0 0.00 0.00 0.00 73 1025.3
20260906220806 74 274 0.0 3.0 0.00 0.00 0.00 72 1025.3
20260906220251 74 274 0.0 3.0 0.00 0.00 0.00 72 1025.2
20260906215750 74 274 0.0 4.0 0.00 0.00 0.00 72 1025.3
20260906215306 74 271 0.0 4.0 0.00 0.00 0.00 71 1025.2
20260906214746 74 274 0.0 0.0 0.00 0.00 0.00 71 1025.2
20260906213741 75 274 0.0 3.0 0.00 0.00 0.00 70 1025.1
20260906213239 75 276 0.0 1.0 0.00 0.00 0.00 70 1025.1
20260906212741 75 273 0.0 1.0 0.00 0.00 0.00 71 1025.1
20260906211738 75 271 0.0 1.0 0.00 0.00 0.00 70 1025.0
20260906211235 76 274 0.0 1.0 0.00 0.00 0.00 69 1025.0
20260906210733 76 274 0.0 1.0 0.00 0.00 0.00 68 1025.0
20260906210231 76 274 0.0 1.0 0.00 0.00 0.00 68 1025.0
20260906205233 77 274 0.0 2.0 0.00 0.00 0.00 65 1025.0
20260906204730 77 273 0.0 0.0 0.00 0.00 0.00 65 1025.0
20260906203729 77 273 0.0 1.0 0.00 0.00 0.00 65 1024.9
20260906203229 77 273 0.0 1.0 0.00 0.00 0.00 65 1024.9
20260906202722 77 273 0.0 1.0 0.00 0.00 0.00 64 1024.9
20260906202218 78 273 0.0 1.0 0.00 0.00 0.00 64 1024.9
20260906201204 78 272 0.0 0.0 0.00 0.00 0.00 63 1024.9
20260906200659 79 271 0.0 0.0 0.00 0.00 0.00 62 1025.0
20260906200156 79 271 0.0 1.0 0.00 0.00 0.00 61 1024.9
20260906195647 79 271 0.0 1.0 0.00 0.00 0.00 60 1025.0
20260906195142 80 274 0.0 0.0 0.00 0.00 0.00 59 1025.0
20260906194131 80 274 0.0 3.0 0.00 0.00 0.00 58 1024.9
20260906193623 80 273 0.0 3.0 0.00 0.00 0.00 58 1024.8
20260906193119 81 274 0.0 3.0 0.00 0.00 0.00 57 1024.8
20260906192611 81 276 0.0 0.0 0.00 0.00 0.00 58 1024.8
20260906192106 81 276 0.0 0.0 0.00 0.00 0.00 58 1024.7
20260906191054 81 276 0.0 0.0 0.00 0.00 0.00 57 1024.6
20260906190544 81 276 0.0 0.0 0.00 0.00 0.00 57 1024.5
20260906190039 82 276 0.0 3.0 0.00 0.00 0.00 57 1024.4
20260906185529 82 278 0.0 3.0 0.00 0.00 0.00 56 1024.1
20260906185023 83 278 0.0 1.0 0.00 0.00 0.00 56 1024.2
20260906184517 83 276 0.0 0.0 0.00 0.00 0.00 55 1024.0
20260906184014 83 278 0.0 0.0 0.00 0.00 0.00 55 1024.0
20260906183506 84 278 0.0 0.0 0.00 0.00 0.00 55 1023.9
20260906182959 84 278 0.0 0.0 0.00 0.00 0.00 54 1023.9
20260906182453 85 278 0.0 0.0 0.00 0.00 0.00 54 1023.8
20260906182001 85 278 0.0 0.0 0.00 0.00 0.00 53 1023.7
20260906181441 86 274 0.0 0.0 0.00 0.00 0.00 52 1023.7
20260906180936 87 274 0.0 0.0 0.00 0.00 0.00 51 1023.5
20260906180429 87 274 0.0 0.0 0.00 0.00 0.00 49 1023.6
20260906175417 88 274 0.0 0.0 0.00 0.00 0.00 48 1023.4
20260906174910 89 274 0.0 0.0 0.00 0.00 0.00 47 1023.3
20260906173405 91 274 0.0 0.0 0.00 0.00 0.00 44 1023.1
20260906172905 92 274 0.0 0.0 0.00 0.00 0.00 43 1023.0
20260906170859 95 276 0.0 1.0 0.00 0.00 0.00 39 1022.6
20260906170358 96 276 0.0 1.0 0.00 0.00 0.00 37 1022.6
20260906165855 96 276 0.0 0.0 0.00 0.00 0.00 36 1022.6
20260906165353 97 276 0.0 0.0 0.00 0.00 0.00 35 1022.6
20260906164349 97 276 0.0 1.0 0.00 0.00 0.00 35 1022.7
20260906162845 98 281 0.0 2.0 0.00 0.00 0.00 34 1022.5
20260906162343 98 274 0.0 1.0 0.00 0.00 0.00 33 1022.6
20260906161845 98 271 0.0 2.0 0.00 0.00 0.00 33 1022.4
20260906161340 98 271 0.0 2.0 0.00 0.00 0.00 32 1022.5
20260906160839 98 335 0.0 0.0 0.00 0.00 0.00 32 1022.5
20260906160352 98 342 0.0 1.0 0.00 0.00 0.00 32 1022.5
20260906155835 97 342 0.0 3.0 0.00 0.00 0.00 33 1022.5
20260906155335 97 351 0.0 3.0 0.00 0.00 0.00 34 1022.6
20260906154835 97 193 0.0 2.0 0.00 0.00 0.00 33 1022.6
20260906154335 97 151 0.0 3.0 0.00 0.00 0.00 34 1022.6
20260906153836 97 150 0.0 3.0 0.00 0.00 0.00 33 1022.6
20260906153337 98 158 0.0 2.0 0.00 0.00 0.00 33 1022.7
20260906152833 98 231 0.0 5.0 0.00 0.00 0.00 33 1022.6
20260906152336 98 233 0.0 5.0 0.00 0.00 0.00 32 1022.7
20260906151335 98 205 0.0 4.0 0.00 0.00 0.00 32 1022.6
20260906150832 98 196 0.0 4.0 0.00 0.00 0.00 33 1022.6
20260906145834 98 195 0.0 4.0 0.00 0.00 0.00 33 1022.6
20260906145334 98 211 0.0 4.0 0.00 0.00 0.00 33 1022.7
20260906144833 98 165 0.0 4.0 0.00 0.00 0.00 33 1022.6
20260906144333 98 169 0.0 4.0 0.00 0.00 0.00 33 1022.7
20260906143333 97 150 0.0 3.0 0.00 0.00 0.00 35 1022.8
20260906142833 97 185 0.0 4.0 0.00 0.00 0.00 35 1022.7
20260906141330 97 282 0.0 5.0 0.00 0.00 0.00 35 1022.8
20260906140329 97 126 0.0 3.0 0.00 0.00 0.00 32 1022.8
20260906135830 97 136 0.0 2.0 0.00 0.00 0.00 32 1022.8
20260906135331 97 116 0.0 3.0 0.00 0.00 0.00 33 1022.8
20260906134828 97 116 0.0 3.0 0.00 0.00 0.00 31 1022.8
20260906134342 97 104 0.0 2.0 0.00 0.00 0.00 31 1022.9
20260906133828 97 103 0.0 2.0 0.00 0.00 0.00 31 1022.9
20260906133331 97 98 1.0 6.0 0.00 0.00 0.00 32 1022.9
20260906132828 97 98 1.0 6.0 0.00 0.00 0.00 31 1023.0
20260906132325 97 57 0.0 3.0 0.00 0.00 0.00 31 1023.0
20260906131825 96 129 0.0 5.0 0.00 0.00 0.00 32 1023.0
20260906131327 96 124 0.0 5.0 0.00 0.00 0.00 31 1023.0
20260906130824 96 190 1.0 4.0 0.00 0.00 0.00 34 1023.1
20260906130335 96 145 1.0 6.0 0.00 0.00 0.00 35 1023.2
20260906125824 96 148 1.0 6.0 0.00 0.00 0.00 32 1023.2
20260906125322 96 139 1.0 5.0 0.00 0.00 0.00 34 1023.2
20260906124821 97 187 0.0 5.0 0.00 0.00 0.00 35 1023.2
20260906124321 97 190 0.0 1.0 0.00 0.00 0.00 34 1023.3
20260906123822 97 158 0.0 2.0 0.00 0.00 0.00 35 1023.3
20260906123324 96 158 0.0 2.0 0.00 0.00 0.00 37 1023.2
20260906122819 96 90 0.0 1.0 0.00 0.00 0.00 35 1023.3
20260906122320 96 95 0.0 1.0 0.00 0.00 0.00 36 1023.4
20260906121812 96 96 0.0 4.0 0.00 0.00 0.00 37 1023.4
20260906121308 95 97 0.0 4.0 0.00 0.00 0.00 38 1023.4
20260906120809 95 93 0.0 4.0 0.00 0.00 0.00 39 1023.5
20260906120310 94 160 0.0 4.0 0.00 0.00 0.00 40 1023.5
20260906115808 94 108 1.0 7.0 0.00 0.00 0.00 41 1023.5
20260906115309 94 130 1.0 7.0 0.00 0.00 0.00 37 1023.5
20260906114807 94 65 0.0 2.0 0.00 0.00 0.00 39 1023.4
20260906114307 94 100 1.0 6.0 0.00 0.00 0.00 39 1023.5
20260906113806 93 107 1.0 6.0 0.00 0.00 0.00 39 1023.5
20260906113304 94 84 0.0 5.0 0.00 0.00 0.00 39 1023.5
20260906112802 93 84 0.0 5.0 0.00 0.00 0.00 39 1023.5
20260906112300 93 115 0.0 5.0 0.00 0.00 0.00 37 1023.5
20260906110759 93 127 0.0 2.0 0.00 0.00 0.00 41 1023.6
20260906105753 92 101 1.0 4.0 0.00 0.00 0.00 43 1023.7
20260906105252 92 94 0.0 4.0 0.00 0.00 0.00 39 1023.7
20260906104754 92 106 0.0 2.0 0.00 0.00 0.00 42 1023.7
20260906104252 91 94 0.0 2.0 0.00 0.00 0.00 40 1023.8
20260906103750 90 97 0.0 3.0 0.00 0.00 0.00 43 1023.8
20260906103245 90 108 1.0 6.0 0.00 0.00 0.00 46 1023.9
20260906102738 90 83 1.0 7.0 0.00 0.00 0.00 46 1023.9
20260906102231 89 117 1.0 5.0 0.00 0.00 0.00 47 1023.9
20260906101727 89 103 1.0 5.0 0.00 0.00 0.00 48 1024.0
20260906101220 89 110 1.0 6.0 0.00 0.00 0.00 49 1024.0
20260906100714 89 145 1.0 6.0 0.00 0.00 0.00 50 1024.1
20260906100208 88 148 0.0 5.0 0.00 0.00 0.00 50 1024.1
20260906095703 88 151 1.0 5.0 0.00 0.00 0.00 51 1024.1
20260906095155 88 148 1.0 5.0 0.00 0.00 0.00 51 1024.1
20260906094650 88 112 1.0 4.0 0.00 0.00 0.00 51 1024.2
20260906094147 87 142 0.0 5.0 0.00 0.00 0.00 56 1024.5
20260906093638 87 112 0.0 5.0 0.00 0.00 0.00 57 1024.5
20260906093132 87 103 0.0 3.0 0.00 0.00 0.00 60 1024.6
20260906092122 86 126 0.0 2.0 0.00 0.00 0.00 62 1024.5
20260906091614 85 129 0.0 2.0 0.00 0.00 0.00 63 1024.7
20260906091112 85 128 0.0 2.0 0.00 0.00 0.00 65 1024.6
20260906090610 85 128 0.0 2.0 0.00 0.00 0.00 64 1024.6
20260906090112 84 130 0.0 1.0 0.00 0.00 0.00 66 1024.6
20260906085108 83 136 0.0 3.0 0.00 0.00 0.00 66 1024.6
20260906084105 82 143 0.0 4.0 0.00 0.00 0.00 67 1024.6
20260906083100 82 139 0.0 3.0 0.00 0.00 0.00 70 1024.5
20260906082558 82 135 0.0 3.0 0.00 0.00 0.00 71 1024.7
20260906082059 81 146 0.0 3.0 0.00 0.00 0.00 71 1024.6
20260906081558 80 117 0.0 2.0 0.00 0.00 0.00 72 1024.7
20260906081057 80 117 0.0 2.0 0.00 0.00 0.00 72 1024.7
20260906080556 80 108 0.0 1.0 0.00 0.00 0.00 74 1024.7
20260906080107 79 108 0.0 1.0 0.00 0.00 0.00 73 1024.6
20260906075550 79 109 0.0 3.0 0.00 0.00 0.00 74 1024.6
20260906075048 79 112 0.0 3.0 0.00 0.00 0.00 75 1024.5
20260906074547 78 112 0.0 2.0 0.00 0.00 0.00 76 1024.6
20260906074045 78 136 0.0 2.0 0.00 0.00 0.00 75 1024.5
20260906073555 77 136 0.0 3.0 0.00 0.00 0.00 75 1024.5
20260906073042 77 135 0.0 3.0 0.00 0.00 0.00 76 1024.4
20260906072538 76 155 0.0 3.0 0.00 0.00 0.00 77 1024.5
20260906072030 76 162 0.0 3.0 0.00 0.00 0.00 78 1024.5
20260906071525 76 162 0.0 3.0 0.00 0.00 0.00 78 1024.4
20260906071022 76 211 0.0 1.0 0.00 0.00 0.00 79 1024.5
20260906070522 75 256 0.0 0.0 0.00 0.00 0.00 79 1024.5
20260906070021 75 274 0.0 0.0 0.00 0.00 0.00 80 1024.5
20260906064515 71 278 0.0 0.0 0.00 0.00 0.00 84 1024.2
20260906064014 71 278 0.0 0.0 0.00 0.00 0.00 84 1024.2
20260906063515 70 278 0.0 0.0 0.00 0.00 0.00 85 1024.4
20260906063012 69 278 0.0 1.0 0.00 0.00 0.00 86 1024.4
20260906062512 69 278 0.0 1.0 0.00 0.00 0.00 87 1024.4
20260906061511 67 278 0.0 0.0 0.00 0.00 0.00 88 1024.2
20260906061009 67 278 0.0 1.0 0.00 0.00 0.00 88 1024.1
20260906060008 66 278 0.0 3.0 0.00 0.00 0.00 88 1024.1
20260906055506 66 269 0.0 1.0 0.00 0.00 0.00 89 1024.0
20260906055005 66 269 0.0 0.0 0.00 0.00 0.00 89 1024.0
20260906054516 65 269 0.0 2.0 0.00 0.00 0.00 89 1023.9
20260906054002 65 269 0.0 2.0 0.00 0.00 0.00 89 1023.9
20260906053504 65 266 0.0 2.0 0.00 0.00 0.00 89 1023.9
20260906053002 65 266 0.0 2.0 0.00 0.00 0.00 89 1023.9
20260906052502 64 268 0.0 0.0 0.00 0.00 0.00 89 1023.8
20260906052000 64 268 0.0 0.0 0.00 0.00 0.00 89 1023.8
20260906051001 64 267 0.0 0.0 0.00 0.00 0.00 89 1023.6
20260906050502 64 267 0.0 0.0 0.00 0.00 0.00 89 1023.7
20260906045959 64 267 0.0 0.0 0.00 0.00 0.00 89 1023.8
20260906044957 64 267 0.0 0.0 0.00 0.00 0.00 89 1023.6
20260906044455 64 267 0.0 0.0 0.00 0.00 0.00 89 1023.5
20260906043957 64 268 0.0 0.0 0.00 0.00 0.00 89 1023.5
20260906043455 64 267 0.0 1.0 0.00 0.00 0.00 89 1023.5
20260906042957 64 268 0.0 1.0 0.00 0.00 0.00 89 1023.5
20260906042456 64 268 0.0 0.0 0.00 0.00 0.00 89 1023.5
20260906041956 64 268 0.0 0.0 0.00 0.00 0.00 89 1023.5
20260906041456 64 268 0.0 0.0 0.00 0.00 0.00 89 1023.5
20260906040959 65 268 0.0 0.0 0.00 0.00 0.00 89 1023.6
20260906040456 65 268 0.0 0.0 0.00 0.00 0.00 89 1023.5
20260906035456 65 267 0.0 0.0 0.00 0.00 0.00 89 1023.5
20260906034456 65 267 0.0 1.0 0.00 0.00 0.00 88 1023.3
20260906033955 65 267 0.0 1.0 0.00 0.00 0.00 88 1023.4
20260906033457 65 267 0.0 0.0 0.00 0.00 0.00 88 1023.2
20260906032957 65 267 0.0 0.0 0.00 0.00 0.00 88 1023.3
20260906032456 65 267 0.0 0.0 0.00 0.00 0.00 88 1023.1
20260906031950 65 267 0.0 0.0 0.00 0.00 0.00 88 1023.2
20260906031444 65 267 0.0 2.0 0.00 0.00 0.00 88 1023.1
20260906030938 66 266 0.0 2.0 0.00 0.00 0.00 87 1023.2
20260906030431 66 265 0.0 1.0 0.00 0.00 0.00 88 1023.1
20260906024913 66 265 0.0 0.0 0.00 0.00 0.00 87 1023.1
20260906024405 66 264 0.0 1.0 0.00 0.00 0.00 87 1023.1
20260906023902 66 264 0.0 1.0 0.00 0.00 0.00 87 1023.2
20260906023355 67 264 0.0 0.0 0.00 0.00 0.00 87 1023.2
20260906022847 67 264 0.0 0.0 0.00 0.00 0.00 87 1023.1
20260906022341 67 264 0.0 0.0 0.00 0.00 0.00 87 1023.0
20260906021835 67 264 0.0 0.0 0.00 0.00 0.00 87 1023.0
20260906021327 67 264 0.0 0.0 0.00 0.00 0.00 86 1023.0
20260906020822 67 264 0.0 0.0 0.00 0.00 0.00 87 1023.0
20260906020330 67 264 0.0 0.0 0.00 0.00 0.00 86 1023.0
20260906015811 67 264 0.0 0.0 0.00 0.00 0.00 86 1023.0
20260906015305 67 264 0.0 0.0 0.00 0.00 0.00 86 1023.1
20260906014756 67 264 0.0 0.0 0.00 0.00 0.00 86 1023.0
20260906014252 67 264 0.0 0.0 0.00 0.00 0.00 86 1023.0
20260906013748 68 264 0.0 0.0 0.00 0.00 0.00 85 1023.0
20260906012735 68 264 0.0 0.0 0.00 0.00 0.00 84 1023.1
20260906012226 68 264 0.0 0.0 0.00 0.00 0.00 84 1023.1
20260906011721 68 264 0.0 0.0 0.00 0.00 0.00 84 1023.2
20260906011217 69 264 0.0 1.0 0.00 0.00 0.00 84 1023.1
20260906010710 69 264 0.0 1.0 0.00 0.00 0.00 84 1023.1
20260906010202 69 264 0.0 0.0 0.00 0.00 0.00 85 1023.1
20260906005204 69 264 0.0 0.0 0.00 0.00 0.00 85 1023.1
20260906004705 69 264 0.0 1.0 0.00 0.00 0.00 85 1023.1
20260906004202 69 264 0.0 3.0 0.00 0.00 0.00 84 1023.1
20260906003700 69 264 0.0 3.0 0.00 0.00 0.00 83 1023.1
20260906003157 69 273 0.0 3.0 0.00 0.00 0.00 83 1023.2
20260906002656 69 272 0.0 0.0 0.00 0.00 0.00 83 1023.3
20260906002153 69 272 0.0 0.0 0.00 0.00 0.00 83 1023.2
20260906001651 69 273 0.0 0.0 0.00 0.00 0.00 82 1023.2
20260906001150 70 273 0.0 0.0 0.00 0.00 0.00 82 1023.3
20260906000648 70 273 0.0 0.0 0.00 0.00 0.00 82 1023.2
20260906000145 70 273 0.0 2.0 0.00 0.00 0.00 82 1023.2
20260905235645 70 273 0.0 2.0 0.00 0.00 0.00 82 1023.3
20260905234640 70 274 0.0 3.0 0.00 0.00 0.00 82 1023.4
20260905234138 70 274 1.0 4.0 0.00 0.00 0.00 81 1023.3
20260905232637 71 270 0.0 3.0 0.00 0.00 0.00 79 1023.4
20260905232136 71 270 0.0 3.0 0.00 0.00 0.00 78 1023.3
20260905231631 71 268 0.0 0.0 0.00 0.00 0.00 79 1023.4
20260905231128 71 268 0.0 0.0 0.00 0.00 0.00 78 1023.4
20260905230627 71 268 0.0 0.0 0.00 0.00 0.00 78 1023.3
20260905230127 72 268 0.0 0.0 0.00 0.00 0.00 78 1023.4
20260905225628 72 268 0.0 0.0 0.00 0.00 0.00 77 1023.3
20260905225127 72 267 0.0 0.0 0.00 0.00 0.00 77 1023.2
20260905224625 72 268 0.0 0.0 0.00 0.00 0.00 77 1023.2
20260905224125 72 268 0.0 0.0 0.00 0.00 0.00 76 1023.2
20260905223625 72 268 0.0 0.0 0.00 0.00 0.00 75 1023.1
20260905223125 72 268 0.0 0.0 0.00 0.00 0.00 75 1023.1
20260905222623 73 268 0.0 0.0 0.00 0.00 0.00 75 1023.1